Content
SEND FEEDBACK

Daily
Averages
Monthly
Summary
United States of America

LAKEWOOD, COLORADO


Home > North America > United States > Colorado
Elevation: 5557 feet     Latitude: 39 45N     Longitude: 105 08W

WEATHER
 
SELECT A DAY
Number of Records: 178,542;   Date Range: 1/1/95 - 4/16/14
 
SHARE

PRINT THIS DATA

[ ← Previous Day ]
WEATHER ALMANAC - JANUARY 23, 2013
[ Next Day → ]
[ °C ]   °F
Weather ElementAverageHighLow
Temperature45.5 °F60.1 °F (1:53 pm)28 °F (2:53 am)
Dewpoint-0.4 °F8.1 °F (7:53 pm)-9 °F (3:53 am)
Humidity16.1 %26 % (8:53 pm)7 % (12:53 pm)
Barometer30.13 in30.19 in (8:53 am)30.08 in (1:53 pm)
Wind Speed6.6 mph13.8 mph (9:53 am)
Weather ElementAverage
Visibility10 mi
Wind DirectionSSE (173 °)

Weather ElementTotal
Precipitation---
Heating Degree Days21 (Base 65)
Averaged from 23 records on January 23, 2013
WEATHER CONDITIONS BREAKOUT
WIND DIRECTION BREAKOUT
WEATHER BY HOUR - JANUARY 23, 2013
[ °C ]   °F
Local TimeTemperatureDewpointHumidityBarometerVisibilityWind DirectionWind SpeedGust SpeedPrecipitationEventsConditions
1:53 AM37.0 °F-8.0 °F14 %30.11 in10.0 miSouth (180°)3.5 mphScattered Clouds
2:53 AM28.0 °F-4.0 °F25 %30.14 in10.0 miSE (140°)6.9 mphClear
3:53 AM37.9 °F-9.0 °F13 %30.09 in10.0 miSouth (180°)6.9 mphScattered Clouds
4:53 AM39.0 °F-8.0 °F13 %30.12 in10.0 miSouth (170°)8.1 mphPartly Cloudy
5:53 AM37.0 °F-4.0 °F17 %30.14 in10.0 miSSE (160°)11.5 mphPartly Cloudy
6:53 AM36.0 °F-2.0 °F20 %30.18 in10.0 miSSE (150°)9.2 mphMostly Cloudy
7:53 AM41.0 °F-5.1 °F14 %30.18 in10.0 miSouth (190°)5.8 mphMostly Cloudy
8:53 AM45.0 °F-2.9 °F14 %30.19 in10.0 miSouth (180°)6.9 mphMostly Cloudy
9:53 AM52.0 °F-7.1 °F9 %30.18 in10.0 miSSW (210°)13.8 mphMostly Cloudy
10:53 AM52.0 °F-5.1 °F9 %30.19 in10.0 miSSW (210°)3.5 mphMostly Cloudy
11:53 AM54.0 °F-2.9 °F10 %30.12 in10.0 miSouth (180°)6.9 mphMostly Cloudy
12:53 PM57.9 °F-7.1 °F7 %30.12 in10.0 miSW (220°)6.9 mphMostly Cloudy
1:53 PM60.1 °F-5.1 °F7 %30.08 in10.0 miCalmMostly Cloudy
2:53 PM57.9 °F3.9 °F11 %30.11 in10.0 miESE (120°)6.9 mphMostly Cloudy
3:53 PM54.0 °F5.0 °F14 %30.08 in10.0 miNNW (340°)3.5 mphMostly Cloudy
4:53 PM53.1 °F3.0 °F13 %30.09 in10.0 miNNE (30°)3.5 mphMostly Cloudy
5:53 PM50.0 °F6.1 °F17 %30.13 in10.0 miSE (140°)8.1 mphMostly Cloudy
6:53 PM48.9 °F6.1 °F18 %30.14 in10.0 miSSE (150°)10.4 mphMostly Cloudy
7:53 PM43.0 °F8.1 °F24 %30.14 in10.0 miSSW (210°)8.1 mphMostly Cloudy
8:53 PM41.0 °F8.1 °F26 %30.14 in10.0 miWest (270°)3.5 mphMostly Cloudy
9:53 PM41.0 °F8.1 °F26 %30.11 in10.0 miSSW (210°)4.6 mphMostly Cloudy
10:53 PM39.9 °F7.0 °F26 %30.11 in10.0 miSouth (170°)6.9 mphMostly Cloudy
11:53 PM41.0 °F6.1 °F24 %30.08 in10.0 miSouth (170°)5.8 mphMostly Cloudy
Hourly data recorded from KAPA, located 8.05 miles away from Lakewood, Colorado







STORIES FROM OUR PARTNERS